Regional Weather Roundup
Issued by NWS

Home | Current Version | Previous Version | Graphics & Text | Print | Product List | Glossary On
Versions: 1 2 3 4 5 6 7 8 9 10 11 12 13 14 15 16 17 18 19 20 21 22 23 24 25 26 27 28 29 30 31 32 33 34 35 36 37 38 39 40 41 42 43 44 45 46 47 48 49 50
735
ASUS43 KLOT 240203
RWRIL

ILLINOIS REGIONAL WEATHER ROUNDUP
NATIONAL WEATHER SERVICE CHICAGO/ROMEOVILLE IL
900 PM CDT MON APR 23 2018

NOTE: "FAIR" INDICATES FEW OR NO CLOUDS BELOW 12,000 FEET WITH NO
SIGNIFICANT WEATHER AND/OR OBSTRUCTIONS TO VISIBILITY.

* THESE STATIONS ARE NOT UNDER NWS QUALITY CONTROL. THEY ALSO MAY NOT
  REPORT WEATHER SUCH AS PRECIPITATION OR FOG.

ILZ001-002-007-009-015-016-024-240300-
NORTHWEST ILLINOIS

CITY           SKY/WX    TMP DP  RH WIND       PRES   REMARKS
MOLINE         FAIR      65  32  29 E15       30.05R
STERLING*      FAIR      60  32  34 E12       30.08R
SAVANNA*       FAIR      55  32  42 E7        30.08S
$$

ILZ003-004-008-010-011-017-018-240300-
NORTH CENTRAL ILLINOIS

CITY           SKY/WX    TMP DP  RH WIND       PRES   REMARKS
ROCKFORD       MOCLDY    58  27  30 E5        30.11R
FREEPORT*      FAIR      53  32  44 E5        30.11S
ROCHELLE*      FAIR      57  31  36 E8        30.09S
DE KALB*       FAIR      56  32  39 E7        30.11R
PERU*          MOCLDY    61  39  44 E16       30.09R
$$

ILZ005-006-012>014-019>023-240300-
NORTHEAST ILLINOIS

CITY           SKY/WX    TMP DP  RH WIND       PRES   REMARKS
CHICAGO-OHARE  CLOUDY    52  26  36 NE14      30.12R
CHICAGO-MIDWAY LGT RAIN  51  31  46 NE9       30.12S
AURORA         MOCLDY    56  26  31 E13       30.10R
LANSING*       CLOUDY    47  40  76 CALM      30.11S
JOLIET*        DRIZZLE   55  32  41 NE7       30.10S
WAUKEGAN       FAIR      52  24  33 N12       30.11R
DUPAGE AIRPORT FAIR      54  26  34 E13       30.11R
KANKAKEE*      CLOUDY    48  45  89 NE8       30.09S
WHEELING       FAIR      52  26  36 NE7       30.15R
MORRIS*        DRIZZLE   53  37  53 NE5       30.09S
ROMEOVILLE*    LGT RAIN  52  31  43 NE14      30.10S
NORTHERLY ISL    N/A     45  33  63 N6          N/A
$$

LMZ740>746-240300-
SOUTHERN LAKE MICHIGAN

STATION/POSITION SKY/WX   TEMP    WIND        PRES    VSBY  WAVE
                          AIR SEA DIR/SP/G                  HT/PER
                          (F)     (DEG/KT/KT) (MB)    (MI)  (FT/S)
HARRISON CRIB              44     330/  6/  7   N/A
BURNHAM HARBOR             45     340/  6/  7   N/A
CALUMET HARBOR             44     330/  6/  7 1019.2F
BURNS HARBOR               42     360/  1/  3 1020.3S
MICHIGAN CITY              43      10/  3/  4   N/A
ST. JOSEPH                 43 42   CALM  /  2 1020.7S         1/ 4
$$

ILZ025>027-034>036-040-047-049-050-058-095>099-240300-
WEST-CENTRAL ILLINOIS

CITY           SKY/WX    TMP DP  RH WIND       PRES   REMARKS
QUINCY         PTCLDY    62  38  40 E7        30.01R
MACOMB*        CLOUDY    57  41  53 E7        30.05R
JACKSONVILLE*  LGT RAIN  56  54  95 E8        30.03S
PITTSFIELD*    CLOUDY    59  54  83 E5        30.03S
$$

ILZ028>032-037-038-041>044-048-051>054-059>061-240300-
CENTRAL ILLINOIS

CITY           SKY/WX    TMP DP  RH WIND       PRES   REMARKS
PONTIAC        LGT RAIN  51  51  98 NE12      30.09R
BLOOMINGTON    LGT RAIN  54  53  97 NE10      30.07R FOG
DECATUR        LGT RAIN  55  55 100 NE10      30.02S FOG
PEORIA         LGT RAIN  57  55  93 E8        30.07R
LACON*         CLOUDY    58  44  58 E8        30.07R
LINCOLN*       LGT RAIN  56  56 100 NE7       30.05R
SPRINGFIELD    LGT RAIN  57  56  96 NE8       30.03S
TAYLORVILLE    DRIZZLE   55  55  99 NE10      30.02R
$$

ILZ033-039-045-046-055>057-062-063-240300-
EAST-CENTRAL ILLINOIS

CITY           SKY/WX    TMP DP  RH WIND       PRES   REMARKS
CHAMPAIGN      LGT RAIN  55  54  96 NE10      30.03S
DANVILLE*      CLOUDY    55  54  97 E9G16     30.02S
RANTOUL*       LGT RAIN  56  56  99 NE8       30.05S
MATTOON        CLOUDY    55  54  96 NE8       30.00R FOG
PARIS*         DRIZZLE   55  55 100 NE9       30.02S
$$

ILZ079-100>102-240300-
SOUTHWEST ILLINOIS

CITY           SKY/WX    TMP DP  RH WIND       PRES   REMARKS
ALTON          CLOUDY    55  54  94 N6        30.01R
CAHOKIA*       CLOUDY    57  54  89 N8        29.98R
SPARTA*        CLOUDY    57  57 100 N7        29.98R
$$

ILZ064>066-069>071-074>076-080>082-084>086-088>090-092>094-240300-
SOUTH-CENTRAL ILLINOIS

CITY           SKY/WX    TMP DP  RH WIND       PRES   REMARKS
CARBONDALE     CLOUDY    56  54  93 N3        29.95R
CAIRO*         FAIR      57  57  97 N3        29.93R
EFFINGHAM*     CLOUDY    56  56 100 CALM      30.01R FOG
MARION         LGT RAIN  56  55  98 CALM      29.96R
MT. VERNON     MOCLDY    58  55  90 N7        29.96S
CENTRALIA*     CLOUDY    58  56  94 NE5       29.97R
SALEM*         CLOUDY    58  55  89 NE7       29.97R
METROPOLIS*    FOG       54  54  98 CALM      29.94R VSB 1/2
$$

ILZ067-068-072-073-078-083-087-091-240300-
SOUTHEAST ILLINOIS

CITY           SKY/WX    TMP DP  RH WIND       PRES   REMARKS
LAWRENCEVILLE  CLOUDY    58  55  90 MISG      29.98R
FLORA*         CLOUDY    58  56  91 NE8       29.97S
FAIRFIELD*     CLOUDY    58  56  93 N5        29.95R
HARRISBURG*    DRIZZLE   58  58 100 CALM      29.95R
ROBINSON*      CLOUDY    55  55  98 NE6       30.00R
CARMI*         RAIN      59  58  96 NE9       29.95R
$$

ABBREVIATIONS USED IN REMARKS
   TC - TEMPERATURE IN CELSIUS
  WCI - WIND CHILL INDEX
   HX - HEAT INDEX
  VSB - VISIBILITY
$$





USA.gov is the U.S. government's official web portal to all federal, state and local government web resources and services.